Change the Weather History Date:

Friday, September 26, 2014

  Actual Average Record
Temperature  
Mean Temperature 80 °F -  
Max Temperature 88 °F 84 °F 91 °F (2012)
Min Temperature 73 °F 73 °F 69 °F (2010)
Cooling Degree Days 16    
Growing Degree Days 30 (Base 50)    
Moisture  
Dew Point 73 °F    
Average Humidity 77    
Maximum Humidity 100    
Minimum Humidity 51    
Precipitation  
Precipitation 0.00 in - - ()
Sea Level Pressure  
Sea Level Pressure 29.84 in    
Wind  
Wind Speed 3 mph ()    
Max Wind Speed 10 mph    
Max Gust Speed -    
Visibility 7.7 miles    
Events Fog    
Averages and records for this station are not official NWS values.
T = Trace of Precipitation, MM = Missing Value Source: Averaged Metar Reports

Daily Weather History Graph

Daily Weather History Graph

Search for Another Location

Airport or City:

Trip Planner

Search our weather history database for the weather conditions in past years. The results will help you decide how hot, cold, wet, or windy it might be!

Date:

Astronomy

Sep. 26, 2014 Rise Set
Actual Time 5:31 AM CST 5:35 PM CST
Civil Twilight 5:10 AM CST 5:56 PM CST
Nautical Twilight 4:45 AM CST 6:21 PM CST
Astronomical Twilight 4:21 AM CST 6:45 PM CST
Moon 7:20 AM CST (9/26) 7:25 PM CST (9/26)
Length of Visible Light 12h 46m
Length of Day
12h 04m
Waxing Crescent, 6% of the Moon is Illuminated
Sep 26
Waxing Crescent
Oct 1
First Quarter
Oct 8
Full
Oct 15
Last Quarter
Oct 23
New

Hourly Weather History & Observations

Time (CST) Temp. Heat Index Dew Point Humidity Pressure Visibility Wind Dir Wind Speed Gust Speed Precip Events Conditions
6:00 AM 73 °F - 73 °F 99% 29.88 in 12 mi NNW 2.3 mph - - Fog Patches of Fog
6:00 AM 73.4 °F - 73.4 °F 100% 29.85 in 6.2 mi NNW 2.3 mph - N/A Fog Patches of Fog
7:00 AM 77.0 °F - 73.4 °F 89% 29.85 in 6.2 mi ENE 3.5 mph - N/A   Scattered Clouds
8:00 AM 80.6 °F 84.6 °F 71.6 °F 74% 29.86 in 6.2 mi SSE 3.5 mph - N/A   Scattered Clouds
9:00 AM 82 °F - 72 °F 66% 29.91 in 12 mi SSW 2.3 mph - -   Partly Cloudy
9:00 AM 82.4 °F 87.2 °F 71.6 °F 70% 29.88 in 6.2 mi SSW 2.3 mph - N/A   Scattered Clouds
10:00 AM 84.2 °F 89.6 °F 71.6 °F 66% 29.88 in 6.2 mi NNE 2.3 mph - N/A   Scattered Clouds
11:00 AM 86.0 °F 91.8 °F 71.6 °F 62% 29.86 in 6.2 mi WNW 2.3 mph - N/A   Scattered Clouds
12:00 PM 88 °F - 72 °F 51% 29.88 in 12 mi WSW 4.6 mph - -   Partly Cloudy
12:00 PM 87.8 °F 93.8 °F 71.6 °F 58% 29.85 in 6.2 mi WSW 4.6 mph - N/A   Scattered Clouds
1:00 PM 86.0 °F 93.4 °F 73.4 °F 66% 29.80 in 6.2 mi West 10.4 mph - N/A   Scattered Clouds
2:00 PM 82.4 °F 88.2 °F 73.4 °F 74% 29.81 in 6.2 mi WNW 8.1 mph - N/A   Mostly Cloudy
3:00 PM 81 °F - 73 °F 71% 29.82 in 12 mi WNW 5.8 mph - -   Overcast
3:00 PM 80.6 °F 84.6 °F 71.6 °F 74% 29.79 in 6.2 mi WNW 5.8 mph - N/A   Mostly Cloudy
4:00 PM 80.6 °F 85.4 °F 73.4 °F 79% 29.79 in 6.2 mi NW 3.5 mph - N/A   Mostly Cloudy
5:00 PM 80.6 °F 86.2 °F 75.2 °F 84% 29.80 in 6.2 mi NNE 3.5 mph - N/A   Overcast
6:00 PM 80 °F - 74 °F 78% 29.83 in 12 mi East 2.3 mph - -   Overcast
6:00 PM 80.6 °F 86.2 °F 75.2 °F 84% 29.80 in 6.2 mi East 2.3 mph - N/A   Overcast
7:00 PM 77.0 °F - 75.2 °F 94% 29.82 in 6.2 mi SSE 5.8 mph - N/A   Overcast
8:00 PM 77.0 °F - 75.2 °F 94% 29.85 in 6.2 mi ENE 2.3 mph - N/A   Overcast